Location: Rounton
(54.4000°N, 1.3500°W)
Time: 07:45:59
(UTC+00:00)

Vanguard 1 Rocket - Pass Details

Date: 06 December 2021
Orbit: 651 x 4224 km, 34.3° (Epoch: 19 January)

Event Time Altitude Azimuth Distance (km) Brightness Sun altitude
Rises 06:07:27 0° 260° (W) 5,658 - -16.6°
Exits shadow 06:10:38 - 252° (WSW) 5,155 10.7 -16.1°
Reaches altitude 10° 06:11:06 10° 251° (WSW) 5,092 10.7 -16.1°
Maximum altitude 06:24:34 33° 195° (SSW) 4,739 11.0 -14.2°
Drops below altitude 10° 06:44:18 10° 143° (SE) 7,378 13.0 -11.5°
Sets 06:51:17 0° 136° (SE) 8,460 13.8 -10.6°
